{"data":{"norad_id":66802,"intl_designator":"2025-278M","name":"STARLINK-35604","alt_names":[],"object_type":"PAYLOAD","status":"ACTIVE","operator":null,"country":"US","launch_date":"2025-12-01","launch_site_code":"AFETR","launch_vehicle":null,"mission":null,"orbit_class":"UNKNOWN","rcs_meters":null,"size_class":null,"mass_kg":null,"dimensions":null,"purposes":["comms"],"wikipedia_slug":null,"has_3d_model":false,"image_url":null,"decayed_at":null,"tle_current":{"epoch":"2026-05-25T02:29:38.302656Z","epoch_age_seconds":69592,"freshness":"FRESH","line1":"1 66802U 25278M   26145.10391554  .00014706  00000+0  54275-3 0  9995","line2":"2 66802  43.0040  42.9922 0001360 263.6019  96.4678 15.27585980 26895","mean_motion":15.2758598,"eccentricity":0.000136,"inclination_deg":43.004,"raan_deg":42.9922,"arg_perigee_deg":263.6019,"mean_anomaly_deg":96.4678,"bstar":0.00054275,"rev_number":2689,"period_min":94.26637969013,"perigee_km":482.09807095296,"apogee_km":483.96430870059,"semimajor_km":6861.1681898268,"source":"CELESTRAK","updated_at":"2026-05-25T13:38:21.328857Z"}}}